Terminal Aerodrome Forecast
Issued by NWS

Home | Current Version | Previous Version | Text Only | Print | Product List | Glossary On
Versions: 1 2 3 4 5 6 7 8 9 10 11 12 13 14 15 16 17 18 19 20 21 22 23 24 25 26 27 28 29 30 31 32 33 34 35 36 37 38 39 40 41 42 43 44 45 46 47 48 49 50
000
FTUS42 KRAH 191510 AAA
TAFINT
TAF AMD
KINT 191510Z 1915/2012 14007KT P6SM SCT007 OVC050
      TEMPO 1915/1916 3SM -SHRA BR OVC007
     FM191600 08011KT 3SM -RA BR OVC007
     FM192000 08012G22KT 1 1/2SM -RA BR OVC004
     FM200600 18005KT 5SM BR OVC004=

USA.gov is the U.S. government's official web portal to all federal, state and local government web resources and services.